Home > Weather > Bijnor > Past weeks

Flag for India Weather for the Past 2 Weeks in Bijnor, Uttar Pradesh, India

Now
72 °F

Haze.


Feels Like: 77 °F
Forecast: 49 / 75 °F
Wind: 9 mph from West

Location: New Delhi Palam Airport

Current Time: Feb 9, 2016 at 6:05:20 PM

Latest Report: Feb 9, 2016 at 5:00 PM


Visibility: 2 mi

Pressure: 29.92 "Hg

Humidity: 47%

Dew point: 50 °F

Location of BijnorLocation

Historic Weather in Bijnor — Graph

°F

Bijnor Temperature Yesterday

Maximum temperature yesterday: 72 °F (at 12:30 PM)
Minimum temperature yesterday: 55 °F (at 11:30 PM)
Average temperature yesterday: 66 °F

High & Low Weather Summary for the Past Weeks

 TemperatureHumidityPressure
High79 °F (Jan 30, 1:30 PM)100% (Jan 26, 2:30 AM)30.12 "Hg (Jan 26, 2:30 AM)
Low43 °F (Feb 5, 6:30 AM)25% (Feb 4, 2:30 PM)29.86 "Hg (Feb 6, 4:30 PM)
Average61 °F65%30.01 "Hg
* Reported Jan 25 3:30 PM — Feb 9 4:00 PM, Bijnor, Weather by CustomWeather, © 2016

Note: Actual official high and low records may vary slightly from our data, if they occured in-between our weather recording intervals... More about our weather records

Advertising

Bijnor Weather History for the Previous 24 Hours

 ConditionsComfort  
Time TempWeatherWind HumidityBarometerVisibility
4:00 PM
Tue, Feb 9
73 °FHaze.9 mph44%29.92 "Hg2 mi
3:30 PM73 °FHaze.9 mph44%29.95 "Hg2 mi
3:00 PM73 °FHaze.8 mph47%29.95 "Hg2 mi
2:30 PM73 °FHaze.8 mph44%29.98 "Hg2 mi
1:30 PM72 °FHaze.8 mph44%30.01 "Hg1 mi
1:00 PM70 °FHaze.8 mph50%30.01 "Hg1 mi
12:30 PM70 °FHaze.8 mph50%30.04 "Hg1 mi
12:00 PM66 °FHaze.8 mph56%30.04 "Hg1 mi
11:30 AM64 °FClear.9 mph60%30.04 "Hg1 mi
10:30 AM57 °FFog.7 mph82%30.07 "Hg1 mi
10:00 AM55 °FFog.6 mph88%30.07 "Hg0 mi
9:00 AM52 °FFog.6 mph100%30.04 "Hg0 mi
8:30 AM52 °FFog.7 mph100%30.04 "Hg0 mi
7:30 AM46 °FFog.3 mph100%30.01 "Hg0 mi
6:30 AM46 °FFog.3 mph100%30.01 "Hg0 mi
6:00 AM50 °FFog.3 mph100%29.98 "Hg0 mi
5:30 AM50 °FFog.3 mph100%29.98 "Hg0 mi
5:00 AM50 °FFog.3 mph100%29.98 "Hg0 mi
4:30 AM52 °FFog.3 mph100%29.98 "Hg0 mi
4:00 AM52 °FFog.5 mph100%29.98 "Hg0 mi
3:30 AM52 °FFog.5 mph100%29.98 "Hg0 mi
3:00 AM54 °FFog.No wind94%30.01 "Hg1 mi
2:30 AM54 °FFog.No wind94%30.01 "Hg1 mi
2:00 AM54 °FFog.No wind94%30.01 "Hg1 mi
1:30 AM54 °FFog.No wind94%30.01 "Hg1 mi
1:00 AM55 °FFog.No wind88%30.01 "Hg1 mi
12:30 AM55 °FFog.No wind88%30.01 "Hg1 mi
12:00 AM55 °FFog.No wind88%30.04 "Hg1 mi
11:30 PM
Mon, Feb 8
55 °FFog.No wind88%30.04 "Hg1 mi
11:00 PM57 °FFog.No wind82%30.04 "Hg1 mi
10:30 PM57 °FFog.3 mph82%30.04 "Hg1 mi
10:00 PM59 °FFog.3 mph77%30.04 "Hg1 mi
9:30 PM61 °FHaze.3 mph72%30.04 "Hg1 mi
9:00 PM63 °FHaze.3 mph68%30.04 "Hg1 mi
8:30 PM63 °FHaze.3 mph68%30.04 "Hg1 mi
8:00 PM66 °FHaze.6 mph64%30.04 "Hg1 mi
7:30 PM66 °FHaze.6 mph64%30.04 "Hg1 mi
7:00 PM66 °FHaze.6 mph64%30.01 "Hg1 mi
6:30 PM68 °FHaze.8 mph56%30.01 "Hg2 mi
6:00 PM68 °FHaze.8 mph56%30.01 "Hg2 mi
Weather by CustomWeather, © 2016

See weather overviewHow to use our weather pages